Location: Nitra
(0.0000°N, 18.0833°E)
Time: 17:34:28
(UTC+01:00)

NOSS 3-4 (C) - Pass Details

Date: 30 November 2023
Orbit: 810 x 1402 km, 63.4° (Epoch: 22 February)

Event Time Altitude Azimuth Distance (km) Brightness Sun altitude
Rises 18:45:35 0° 348° (NNW) 4,193 6.7 -16.1°
Reaches altitude 10° 18:48:24 10° 354° (N) 3,295 6.1 -16.7°
Maximum altitude 18:56:17 52° 68° (ENE) 1,663 4.3 -18.5°
Drops below altitude 10° 19:04:37 10° 142° (SE) 3,487 6.2 -20.4°
Sets 19:07:39 0° 146° (SE) 4,453 6.8 -21.1°
